Regional Weather Roundup
Issued by NWS Goodland, KS

Home | Current Version | Previous Version | Text Only | Print | Product List | Glossary Off
Versions: 1 2 3 4 5 6 7 8 9 10 11 12 13 14 15 16 17 18 19 20 21 22 23 24 25 26 27 28 29 30 31 32 33 34 35 36 37 38 39 40 41 42 43 44 45 46 47 48 49 50

646
ASUS43 KGLD 190959
RWRGLD

GOODLAND FORECAST AREA HOURLY WEATHER ROUNDUP
NATIONAL WEATHER SERVICE GOODLAND KS
400 AM MDT TUE SEP 19 2017

...OFFICIAL OBSERVATIONS...

CITY           SKY/WX    TMP DP  RH WIND       PRES   REMARKS
GOODLAND KS    PTCLDY    64  63  96 S21       29.74F FOG
HILL CITY KS   CLEAR     69  65  86 VRB5      29.77F
IMPERIAL NEB   CLOUDY    60  55  83 SE9       29.71F
MCCOOK NEB     CLEAR     64  60  87 VRB3      29.73F
AKRON CO       CLOUDY    62  44  51 S14       29.73F
BURLINGTON CO  CLEAR     55  52  89 S13       29.76F
LIMON CO         N/A    N/A N/A N/A MISG      29.82F
$$

...UNOFFICIAL OBSERVATIONS...

CITY           SKY/WX    TMP DP  RH WIND       PRES   REMARKS
LENORA KS        N/A     67  32  27 MISG        N/A
NORTON KS      CLEAR     64  59  82 S9        29.76F
SHARON SPRINGS   N/A     65  63  93 SE12G20     N/A
TRENTON NEB      N/A     65  32  29 S8          N/A
KIT CARSON CO    N/A     50  46  87 CALM        N/A
YUMA CO        FAIR      52  36  54 S7        29.72F
$$




USA.gov is the U.S. government's official web portal to all federal, state and local government web resources and services.